Loading...

#vaporetti2017 1^ sessione prove risultati

33 Tecnokar 2:01:81 1
136 Panificio Cucci 2:02:55 2
23 Bar Moriconi 2:02:89 3
22 Pizzeria La Rotonda 2:03:44 4
29 Unique / BEA 2:03:63 5
98 Ass. Il Bruco 2:03:81 6
31 Aerodynamic s.r.l.s. 2:04:62 7
75 Vivaio Rosaria 2:05:02 8
20 SICAF 2:05:23 9
8 Il Caminetto 2:05:29 10
71 Italmatch 2:05:84 11
200 AROF 2:06:24 12
12 VusCom 2:06:30 13
120 Ottica Dragoni 2:06:31 14
26 Agriturismo la Rippja 2:06:52 15
3 Pietro Coricelli S.p.A. 2:06:82 16
66 P&S Manufacturing 2:06:99 17
40 Deva 2:07:17 18
46 Zucchero 2:07:37 19
30 Speedy Print 2:07:77 20
77 Gelateria Crispini 2:07:86 21
61 MTB Spoleto 2:08:28 22
25 Caffè dello Sport 2:08:41 23
313 Aurum 2:08:52 24
5 MM33 2:08:72 25
13 Oleificio Venturi – Bar Moriconi 2:08:78 26
57 Bar dei Portici 2:09:13 27
27 Costa d’Oro 2:09:21 28
117 Agripet Garden 2:09:42 29
34 Tecnokar 2:10:02 30
19 RPM / Ristorante Tric Trac 2:10:20 31
69 Mister Cicci / Caffè Garibaldi 2:10:39 32
369 Magic Shop 2:10:45 33
94 VusCom 2:11:12 34
41 Panificio Bonucci 2:11:17 35
54 IP Snack Bar 2:11:40 36
100 CLS Valnerina / Innocenzi Costruzioni 2:11:85 37
24 Autopama 2:12:03 38
9 Ennegi Net 2:12:04 39
53 Carrozzeria Mattioli 2:12:22 40
99 Regoli Arredamenti 2:12:22 40
14 Il Camino 2:13:16 42
10 Olivella / Tecno Industrie 2:14:13 43
50 Pulcinella Express 2:14:24 44
59 Cuore & Sapore Ristorante 2:15:89 45
15 Marcucci Gomme 2:15:95 46
43 Carrozzeria Mattioli 2:17:05 47
60 Costa d’Oro 2:17:25 48
7 AROF 2:17:38 49
16 Carrozzeria Gori 2:19:58 50
420 Lab 420 2:25:79 51
73 SICAF 2:29:75 52
95 Rosa dei Vini 2:34:83 53
2 BPS 2:45:61 54
42 Prosciutteria del Corso 2:57:10 55
222 Ass. Il Cigno 3:46:97 56
 Previous  All works Next